Weather History for Sparta, WI

Change the Weather History Date:

Tuesday, December 24, 2013

  Actual Average Record
Temperature  
Mean Temperature -4 °F -  
Max Temperature 15 °F 23 °F 48 °F (2006)
Min Temperature -23 °F 6 °F -30 °F (1951)
Degree Days  
Heating Degree Days 69    
Moisture  
Dew Point -8 °F    
Average Humidity 76    
Maximum Humidity 86    
Minimum Humidity 68    
Precipitation  
Precipitation 0.00 in - - ()
Sea Level Pressure  
Sea Level Pressure 30.40 in    
Wind  
Wind Speed 2 mph (SSE)    
Max Wind Speed 12 mph    
Max Gust Speed -    
Visibility 8 miles    
Events Snow    
Averages and records for this station are not official NWS values.
T = Trace of Precipitation, MM = Missing Value Source: NWS Daily Summary

Daily Weather History Graph

Daily Weather History Graph

Search for Another Location

Airport:

Trip Planner

Search our weather history database for the weather conditions in past years. The results will help you decide how hot, cold, wet, or windy it might be!

Date:

Astronomy

Dec. 24, 2013 Rise Set
Actual Time 7:35 AM CST 4:29 PM CST
Civil Twilight 7:02 AM CST 5:02 PM CST
Nautical Twilight 6:26 AM CST 5:39 PM CST
Astronomical Twilight 5:51 AM CST 6:14 PM CST
Moon 11:52 PM CST (12/24) 11:16 AM CST (12/24)
Length of Visible Light 10h 00m
Length of Day
8h 53m
Waning Gibbous, 58% of the Moon is Illuminated
Dec 24
Waning Gibbous
Dec 25
Last Quarter
Jan 1
New
Jan 7
First Quarter
Jan 15
Full

Hourly Weather History & Observations

Time (CST) Temp. Windchill Dew Point Humidity Pressure Visibility Wind Dir Wind Speed Gust Speed Precip Events Conditions
12:15 AM -13.9 °F - -18.0 °F 82% 30.46 in 7.0 mi Calm Calm - N/A   Clear
12:35 AM -14.8 °F - -19.5 °F 79% 30.46 in 10.0 mi Calm Calm - N/A   Clear
12:55 AM -15.2 °F - -19.5 °F 81% 30.47 in 10.0 mi Calm Calm - N/A   Clear
1:15 AM -15.3 °F - -20.0 °F 79% 30.46 in 10.0 mi Calm Calm - N/A   Clear
1:35 AM -16.1 °F - -20.7 °F 79% 30.47 in 10.0 mi Calm Calm - N/A   Clear
1:55 AM -15.5 °F - -20.6 °F 78% 30.47 in 10.0 mi Calm Calm - N/A   Clear
2:15 AM -16.2 °F - -21.5 °F 77% 30.47 in 10.0 mi Calm Calm - N/A   Clear
2:35 AM -18.4 °F -28.9 °F -23.4 °F 78% 30.47 in 10.0 mi East 3.5 mph - N/A   Clear
2:55 AM -17.7 °F - -22.9 °F 77% 30.48 in 10.0 mi Calm Calm - N/A   Clear
3:15 AM -17.7 °F - -22.7 °F 78% 30.48 in 10.0 mi Calm Calm - N/A   Clear
3:35 AM -18.8 °F - -24.0 °F 77% 30.47 in 10.0 mi Calm Calm - N/A   Clear
3:55 AM -19.1 °F - -24.5 °F 76% 30.47 in 10.0 mi Calm Calm - N/A   Clear
4:15 AM -20.2 °F -30.9 °F -26.1 °F 74% 30.46 in 10.0 mi ESE 3.5 mph - N/A   Clear
4:35 AM -19.8 °F - -25.8 °F 74% 30.47 in 10.0 mi Calm Calm - N/A   Clear
4:55 AM -20.0 °F - -26.1 °F 73% 30.47 in 10.0 mi Calm Calm - N/A   Clear
5:15 AM -21.5 °F - -27.8 °F 73% 30.47 in 10.0 mi Calm Calm - N/A   Clear
5:35 AM -21.3 °F - -27.2 °F 74% 30.47 in 10.0 mi Calm Calm - N/A   Clear
5:55 AM -21.6 °F - -27.4 °F 75% 30.47 in 10.0 mi Calm Calm - N/A   Clear
6:15 AM -22.4 °F - -28.3 °F 74% 30.46 in 10.0 mi Calm Calm - N/A   Clear
6:35 AM -22.2 °F - -27.9 °F 75% 30.47 in 10.0 mi Calm Calm - N/A   Clear
6:55 AM -22.5 °F - -28.3 °F 75% 30.49 in 10.0 mi Calm Calm - N/A   Clear
7:15 AM -23.4 °F - -29.4 °F 74% 30.50 in 10.0 mi Calm Calm - N/A   Clear
7:35 AM -22.7 °F - -28.5 °F 74% 30.50 in 10.0 mi Calm Calm - N/A   Clear
7:55 AM -22.2 °F - -27.9 °F 75% 30.50 in 10.0 mi Calm Calm - N/A Snow Light Snow
8:15 AM -21.3 °F - -27.2 °F 74% 30.50 in 5.0 mi Calm Calm - N/A Snow Light Snow
8:35 AM -18.9 °F - -24.3 °F 76% 30.50 in 5.0 mi Calm Calm - N/A Snow Light Snow
8:55 AM -16.4 °F - -21.6 °F 77% 30.50 in 1.8 mi Calm Calm - N/A Snow Light Snow
9:15 AM -14.1 °F - -18.8 °F 79% 30.50 in 1.0 mi Calm Calm - N/A Snow Light Snow
9:35 AM -10.8 °F - -15.0 °F 82% 30.49 in 0.5 mi Calm Calm - N/A Snow Light Snow
9:55 AM -10.3 °F - -14.6 °F 81% 30.48 in 7.0 mi Calm Calm - N/A   Clear
10:15 AM -5.8 °F -14.5 °F -9.8 °F 83% 30.49 in 10.0 mi NW 3.5 mph - N/A   Clear
10:35 AM -3.3 °F - -6.7 °F 85% 30.47 in 10.0 mi Calm Calm - N/A   Clear
10:55 AM -1.8 °F - -5.8 °F 83% 30.46 in 10.0 mi Calm Calm - N/A   Clear
11:15 AM -0.0 °F - -3.8 °F 84% 30.45 in 5.0 mi Calm Calm - N/A Snow Light Snow
11:35 AM 3.4 °F - -1.3 °F 81% 30.45 in 10.0 mi Calm Calm - N/A   Clear
11:55 AM 5.9 °F - -1.3 °F 72% 30.44 in 10.0 mi Calm Calm - N/A   Clear
12:15 PM 7.5 °F -2.6 °F 0.3 °F 72% 30.42 in 10.0 mi South 5.8 mph - N/A   Clear
12:35 PM 11.3 °F 0.7 °F 4.1 °F 73% 30.40 in 10.0 mi SE 6.9 mph - N/A   Clear
12:55 PM 12.0 °F 5.9 °F 4.5 °F 72% 30.40 in 10.0 mi ESE 3.5 mph - N/A   Clear
1:15 PM 12.7 °F 1.4 °F 4.8 °F 71% 30.38 in 10.0 mi SSE 8.1 mph - N/A   Clear
1:35 PM 13.3 °F 4.2 °F 5.4 °F 71% 30.38 in 10.0 mi ESE 5.8 mph - N/A   Clear
1:55 PM 14.4 °F 2.4 °F 5.9 °F 69% 30.36 in 10.0 mi South 9.2 mph - N/A   Clear
2:15 PM 15.6 °F 5.9 °F 7.0 °F 69% 30.37 in 10.0 mi SSE 6.9 mph - N/A   Clear
2:35 PM 15.3 °F 2.8 °F 6.3 °F 68% 30.36 in 10.0 mi South 10.4 mph - N/A   Clear
2:55 PM 14.0 °F 2.9 °F 5.7 °F 70% 30.37 in 10.0 mi SSW 8.1 mph - N/A   Clear
3:15 PM 13.6 °F 7.7 °F 5.2 °F 69% 30.36 in 10.0 mi South 3.5 mph - N/A   Clear
3:35 PM 13.3 °F -0.5 °F 5.0 °F 70% 30.36 in 10.0 mi South 11.5 mph - N/A   Clear
3:55 PM 13.1 °F 4.0 °F 4.5 °F 68% 30.36 in 10.0 mi South 5.8 mph - N/A   Clear
4:15 PM 12.9 °F 1.6 °F 4.6 °F 70% 30.35 in 10.0 mi South 8.1 mph - N/A   Clear
4:35 PM 12.7 °F 5.0 °F 5.0 °F 71% 30.35 in 10.0 mi SSE 4.6 mph - N/A   Clear
4:55 PM 12.6 °F 6.5 °F 4.1 °F 69% 30.35 in 10.0 mi South 3.5 mph - N/A   Clear
5:15 PM 12.4 °F 3.1 °F 4.1 °F 69% 30.34 in 10.0 mi SSE 5.8 mph - N/A   Clear
5:35 PM 12.0 °F 4.1 °F 3.9 °F 70% 30.32 in 10.0 mi SSE 4.6 mph - N/A   Clear
5:55 PM 11.7 °F 1.1 °F 3.4 °F 69% 30.32 in 10.0 mi SSE 6.9 mph - N/A   Clear
6:15 PM 11.5 °F 2.1 °F 3.2 °F 69% 30.32 in 10.0 mi SSE 5.8 mph - N/A   Clear
6:35 PM 11.3 °F 1.9 °F 3.9 °F 72% 30.31 in 10.0 mi SE 5.8 mph - N/A   Clear
6:55 PM 11.3 °F -1.3 °F 3.4 °F 70% 30.31 in 10.0 mi SSE 9.2 mph - N/A   Clear
7:15 PM 11.1 °F 0.4 °F 3.4 °F 71% 30.31 in 10.0 mi South 6.9 mph - N/A   Clear
7:35 PM 10.9 °F 2.9 °F 4.8 °F 76% 30.31 in 3.0 mi SE 4.6 mph - N/A Snow Light Snow
7:55 PM 10.4 °F -0.4 °F 5.4 °F 80% 30.30 in 3.0 mi SSE 6.9 mph - N/A Snow Light Snow
8:15 PM 10.4 °F 0.8 °F 5.7 °F 81% 30.28 in 1.2 mi SE 5.8 mph - N/A Snow Light Snow
8:35 PM 10.4 °F - 6.4 °F 84% 30.28 in 1.2 mi Calm Calm - N/A Snow Light Snow
8:55 PM 10.4 °F 0.8 °F 6.4 °F 84% 30.27 in 1.5 mi South 5.8 mph - N/A Snow Light Snow
9:15 PM 10.2 °F 3.8 °F 6.8 °F 86% 30.27 in 0.8 mi SSW 3.5 mph - N/A Snow Snow
9:35 PM 10.0 °F -1.9 °F 6.6 °F 86% 30.26 in 0.8 mi South 8.1 mph - N/A Snow Snow
9:55 PM 9.9 °F 0.2 °F 6.3 °F 85% 30.25 in 2.0 mi South 5.8 mph - N/A Snow Light Snow
10:15 PM 9.7 °F -0.1 °F 5.9 °F 85% 30.24 in 1.2 mi South 5.8 mph - N/A Snow Light Snow
10:35 PM 9.5 °F 3.0 °F 6.1 °F 86% 30.24 in 1.0 mi SSW 3.5 mph - N/A Snow Snow
10:55 PM 9.5 °F 3.0 °F 5.9 °F 85% 30.24 in 1.5 mi SW 3.5 mph - N/A Snow Light Snow
11:15 PM 9.1 °F -0.7 °F 5.2 °F 84% 30.24 in 2.0 mi SSW 5.8 mph - N/A Snow Light Snow
11:35 PM 9.1 °F 0.8 °F 5.0 °F 83% 30.23 in 1.8 mi SSW 4.6 mph - N/A Snow Light Snow
11:55 PM 8.8 °F 2.2 °F 5.4 °F 86% 30.22 in 0.8 mi SSW 3.5 mph - N/A Snow Snow